User: anonymous   Login
Location: Poughquag
(41.6090°N, 73.6820°W)
Time: 01:32:30
(UTC-04:00)
Language:

XW-2D - Orbit

View from above orbital plane
View from above orbital plane
View from above satellite
View from above satellite

Ground track
Ground track

The orbit data is extracted from the following two-line orbital elements,

1 40907U 15049J   24174.82043929  .00038633  00000-0  67300-3 0  9996
2 40907  97.4703 194.3515 0004491 245.4204 114.6580 15.50645587485579
Epoch (UTC): 22 June 2024 19:41:25
Eccentricity: 0.0004491
inclination: 97.4703°
perigee height: 412 km
apogee height: 418 km
right ascension of ascending node: 194.3515°
argument of perigee: 245.4204°
revolutions per day: 15.50645587
mean anomaly at epoch: 114.6580°
orbit number at epoch: 48557

The dashed part of the orbit path shows where the satellite is in the earth's shadow,  

DLR